Pierre, SD

3:35 AM CST on February 22, 2017 (GMT -0600)
Pierre Regional

Weather History for KPIR - January, 2012

Change the Weather History Date:

Monday, January 23, 2012

  Actual Average Record
Temperature  
Mean Temperature 17 °F 20 °F  
Max Temperature 27 °F 30 °F 68 °F (1981)
Min Temperature 6 °F 10 °F -20 °F (1952)
Degree Days  
Heating Degree Days 48 45  
Month to date heating degree days 937 1040  
Since 1 July heating degree days 3534 4002  
Cooling Degree Days 0 0  
Month to date cooling degree days 0 0  
Year to date cooling degree days 0 0  
Moisture  
Dew Point 12 °F    
Average Humidity 80    
Maximum Humidity 92    
Minimum Humidity 68    
Precipitation  
Precipitation 0.00 in 0.02 in 0.80 in (1894)
Month to date precipitation 0.54 0.32  
Year to date precipitation 0.54 0.32  
Snow  
Snow 0.00 in 0.10 in 1.60 in (1982)
Month to date snowfall 4.7 3.5  
Since 1 July snowfall 15.0 14.7  
Snow Depth 2.00 in    
Sea Level Pressure  
Sea Level Pressure 29.92 in    
Wind  
Wind Speed 10 mph (North)    
Max Wind Speed 23 mph    
Max Gust Speed 29 mph    
Visibility 8 miles    
Events Fog    
T = Trace of Precipitation, MM = Missing Value Source: NWS Daily Summary

Daily Weather History Graph

Daily Weather History Graph

Search for Another Location

Airport or City:

Trip Planner

Search our weather history database for the weather conditions in past years. The results will help you decide how hot, cold, wet, or windy it might be!

Date:

Astronomy

Jan. 23, 2012 Rise Set
Actual Time 8:08 AM CST 5:37 PM CST
Civil Twilight 7:37 AM CST 6:09 PM CST
Nautical Twilight 7:01 AM CST 6:44 PM CST
Astronomical Twilight 6:27 AM CST 7:19 PM CST
Moon 8:02 AM CST (1/23) 6:30 PM CST (1/23)
Length of Visible Light 10h 32m
Length of Day
9h 28m
New Moon, 0% of the Moon is Illuminated
Jan 23
New Moon
Jan 30
First Quarter
Feb 7
Full
Feb 14
Last Quarter
Feb 21
New

Hourly Weather History & Observations

Time (CST) Temp. Windchill Dew Point Humidity Pressure Visibility Wind Dir Wind Speed Gust Speed Precip Events Conditions
12:53 AM 23.0 °F 9.2 °F 17.1 °F 78% 29.81 in 10.0 mi NW 17.3 mph - N/A   Overcast
1:53 AM 23.0 °F 8.7 °F 16.0 °F 74% 29.81 in 10.0 mi NW 18.4 mph - N/A   Overcast
2:53 AM 23.0 °F 8.3 °F 16.0 °F 74% 29.84 in 10.0 mi NNW 19.6 mph - N/A   Overcast
3:53 AM 21.9 °F 7.3 °F 15.1 °F 75% 29.86 in 10.0 mi NW 18.4 mph - N/A   Overcast
4:37 AM 21.2 °F 4.9 °F 15.8 °F 80% 29.79 in 10.0 mi NW 23.0 mph 28.8 mph N/A   Overcast
4:53 AM 21.9 °F 6.5 °F 15.1 °F 75% 29.86 in 10.0 mi NW 20.7 mph - N/A   Overcast
5:53 AM 21.2 °F 8.9 °F 15.8 °F 80% 29.81 in 10.0 mi NNW 12.7 mph - N/A   Overcast
6:53 AM 21.2 °F 7.8 °F 15.8 °F 80% 29.83 in 10.0 mi NNW 15.0 mph - N/A   Overcast
7:53 AM 21.0 °F 7.6 °F 15.1 °F 78% 29.89 in 10.0 mi NNW 15.0 mph - N/A   Overcast
8:53 AM 19.9 °F 6.2 °F 14.0 °F 78% 29.91 in 10.0 mi NNW 15.0 mph - N/A   Overcast
9:53 AM 19.9 °F 6.2 °F 12.9 °F 74% 29.94 in 10.0 mi NNW 15.0 mph - N/A   Overcast
10:53 AM 21.0 °F 9.3 °F 15.1 °F 78% 29.95 in 10.0 mi NW 11.5 mph - N/A   Overcast
11:53 AM 23.0 °F 11.1 °F 17.1 °F 78% 29.94 in 10.0 mi WNW 12.7 mph - N/A   Overcast
12:53 PM 23.0 °F 12.4 °F 17.1 °F 78% 29.94 in 10.0 mi NNW 10.4 mph - N/A   Overcast
1:53 PM 23.0 °F 13.1 °F 18.0 °F 81% 29.94 in 10.0 mi WNW 9.2 mph - N/A   Overcast
2:38 PM 24.8 °F 16.1 °F 15.8 °F 69% 29.86 in 10.0 mi NW 8.1 mph - N/A   Scattered Clouds
2:53 PM 25.0 °F 18.1 °F 17.1 °F 72% 29.94 in 10.0 mi West 5.8 mph - N/A   Clear
3:53 PM 25.0 °F - 16.0 °F 69% 29.94 in 10.0 mi Calm Calm - N/A   Clear
4:53 PM 24.1 °F - 16.0 °F 71% 29.96 in 10.0 mi Calm Calm - N/A   Clear
5:53 PM 19.0 °F - 14.0 °F 81% 29.98 in 10.0 mi Calm Calm - N/A   Clear
6:53 PM 16.0 °F 8.8 °F 12.9 °F 88% 29.99 in 10.0 mi East 4.6 mph - N/A   Clear
7:53 PM 12.0 °F - 10.9 °F 95% 30.01 in 10.0 mi Calm Calm - N/A   Clear
8:53 PM 10.9 °F - 9.0 °F 92% 30.00 in 10.0 mi Calm Calm - N/A   Clear
9:53 PM 7.0 °F -1.7 °F 5.0 °F 92% 30.01 in 8.0 mi ENE 4.6 mph - N/A   Clear
10:53 PM 7.0 °F - 3.9 °F 87% 30.02 in 5.0 mi Calm Calm - N/A   Clear
10:58 PM 6.8 °F -0.1 °F 3.2 °F 85% 29.92 in 1.8 mi ENE 3.5 mph - N/A   Clear
11:01 PM 6.8 °F -2.0 °F 5.0 °F 92% 29.92 in 0.8 mi ENE 4.6 mph - N/A   Mist
11:12 PM 6.8 °F -2.0 °F 5.0 °F 92% 29.92 in 0.2 mi NE 4.6 mph - N/A Fog Light Freezing Fog
11:35 PM 6.8 °F -2.0 °F 3.2 °F 85% 29.92 in 1.0 mi ENE 4.6 mph - N/A   Mist
11:39 PM 6.8 °F -2.0 °F 3.2 °F 85% 29.92 in 3.0 mi ENE 4.6 mph - N/A   Mostly Cloudy
11:49 PM 6.8 °F -2.0 °F 5.0 °F 92% 29.92 in 10.0 mi East 4.6 mph - N/A   Scattered Clouds
11:53 PM 8.1 °F -0.5 °F 6.1 °F 92% 30.02 in 10.0 mi East 4.6 mph - N/A   Partly Cloudy